Location: Ithaca
(42.4410°N, 76.4970°W)
Time: 16:35:26
(UTC-05:00)

ISS - Visible Passes

Search period start: 28 November 2014 00:00
Search period end: 08 December 2014 00:00
Orbit: 407 x 417 km, 51.6° (Epoch: 28 November)

Date Brightness Start Highest point End Pass type
(mag) Time Alt. Az. Time Alt. Az. Time Alt. Az.
28 Nov -0.1 04:27:26 14° ESE 04:27:26 14° ESE 04:28:01 10° ESE visible
28 Nov -1.7 06:00:16 18° WSW 06:01:13 21° SW 06:03:45 10° S visible
29 Nov -1.6 05:12:47 25° S 05:12:47 25° S 05:14:33 10° SSE visible
06 Dec -0.1 19:13:02 10° SW 19:13:08 11° SW 19:13:08 11° SW visible
07 Dec -1.8 18:23:15 10° SSW 18:25:23 27° SSE 18:25:23 27° SSE visible
